Date String (YYYY-MM-DD hh:mm:ss) UTC,Instrument flags,Ambient pressure (hPa),Sample flow (lpm),Bypass flow (lpm),Sample temperature (°C),Ambient temperature (°C),ASC tube jacket temperature (°C),LED temperature (°C),Box temperature (°C),Sample RH (%),Span deviation,Mass concentration (μg/m³),Mass concentration (μg/m³),Mass concentration (μg/m³)
DateTimeUTC,F1_M11,P_M11,Q1_M11,Q2_M11,T1_M11,T2_M11,T3_M11,T4_M11,T5_M11,U1_M11,ZSPAN_M11,X0_M11,X2_M11,X1_M11
2022-12-26 06:00:00,,0828.9,5.01,0.00,21.6,20.0,00.0,30.7,23.3,19.6,0000.0,0004.72,0002.44,0002.18
2022-12-26 06:01:00,,0828.9,5.02,0.00,21.6,20.0,00.0,30.6,23.3,19.7,0000.0,0004.08,0002.32,0002.10
2022-12-26 06:02:00,,0829.0,5.00,0.00,21.6,20.0,00.0,30.6,23.3,19.7,0000.0,0003.93,0002.20,0001.99
2022-12-26 06:03:00,,0828.9,4.98,0.00,21.6,20.0,00.0,30.6,23.3,19.7,0000.0,0003.78,0002.07,0001.89
2022-12-26 06:04:00,,0828.9,4.98,0.00,21.6,20.1,00.0,30.6,23.3,19.8,0000.0,0003.64,0001.99,0001.81
2022-12-26 06:05:00,,0829.0,5.01,0.00,21.6,20.2,00.0,30.6,23.4,19.8,0000.0,0003.69,0001.97,0001.74
2022-12-26 06:06:00,,0829.0,5.02,0.00,21.6,20.2,00.0,30.6,23.4,19.8,0000.0,0003.53,0001.91,0001.70
2022-12-26 06:07:00,,0829.2,5.02,0.00,21.6,20.2,00.0,30.6,23.4,19.8,0000.0,0003.48,0001.89,0001.66
2022-12-26 06:08:00,,0829.2,4.98,0.00,21.6,20.1,00.0,30.6,23.4,19.8,0000.0,0003.46,0001.90,0001.64
2022-12-26 06:09:00,,0829.2,4.98,0.00,21.6,20.1,00.0,30.6,23.3,19.8,0000.0,0003.67,0001.90,0001.60
2022-12-26 06:10:00,,0829.4,5.01,0.00,21.6,20.0,00.0,30.5,23.3,19.8,0000.0,0003.70,0001.89,0001.58
2022-12-26 06:11:00,,0829.3,5.03,0.00,21.6,20.0,00.0,30.5,23.3,19.8,0000.0,0003.74,0001.88,0001.57
2022-12-26 06:12:00,,0829.3,5.02,0.00,21.6,20.1,00.0,30.5,23.3,19.8,0000.0,0004.00,0001.93,0001.58
2022-12-26 06:13:00,,0829.2,4.96,0.00,21.6,20.2,00.0,30.5,23.3,19.8,0000.0,0004.22,0001.96,0001.60
2022-12-26 06:14:00,,0829.1,4.98,0.00,21.6,20.3,00.0,30.5,23.4,19.8,0000.0,0004.34,0001.96,0001.60
2022-12-26 06:15:00,,0829.0,5.02,0.00,21.6,20.3,00.0,30.5,23.4,19.8,0000.0,0004.69,0001.93,0001.60
2022-12-26 06:16:00,,0828.9,5.03,0.00,21.6,20.4,00.0,30.5,23.4,19.7,0000.0,0005.58,0001.90,0001.61
2022-12-26 06:17:00,,0829.0,5.00,0.00,21.6,20.5,00.0,30.5,23.5,19.7,0000.0,0005.75,0001.92,0001.62
2022-12-26 06:18:00,,0829.1,4.97,0.00,21.6,20.5,00.0,30.5,23.5,19.7,0000.0,0005.93,0001.90,0001.61
2022-12-26 06:19:00,,0829.2,4.98,0.00,21.7,20.5,00.0,30.5,23.5,19.7,0000.0,0005.77,0001.87,0001.60
2022-12-26 06:20:00,,0829.2,5.02,0.00,21.7,20.6,00.0,30.5,23.5,19.6,0000.0,0004.87,0001.83,0001.59
2022-12-26 06:21:00,,0829.2,5.04,0.00,21.7,20.5,00.0,30.5,23.5,19.6,0000.0,0004.73,0001.78,0001.57
2022-12-26 06:22:00,,0829.2,5.01,0.00,21.7,20.4,00.0,30.5,23.5,19.6,0000.0,0004.68,0001.74,0001.52
2022-12-26 06:23:00,,0829.0,4.98,0.00,21.7,20.4,00.0,30.6,23.5,19.6,0000.0,0004.34,0001.64,0001.47
2022-12-26 06:24:00,,0829.1,4.97,0.00,21.7,20.5,00.0,30.6,23.5,19.7,0000.0,0004.13,0001.58,0001.42
2022-12-26 06:25:00,,0829.2,5.02,0.00,21.7,20.5,00.0,30.6,23.5,19.6,0000.0,0003.94,0001.56,0001.39
2022-12-26 06:26:00,,0829.2,5.00,0.00,21.7,20.5,00.0,30.6,23.5,19.6,0000.0,0003.73,0001.53,0001.34
2022-12-26 06:27:00,,0829.3,5.02,0.00,21.7,20.4,00.0,30.6,23.5,19.6,0000.0,0002.47,0001.47,0001.29
2022-12-26 06:28:00,,0829.2,4.98,0.00,21.7,20.4,00.0,30.6,23.5,19.6,0000.0,0002.38,0001.41,0001.23
2022-12-26 06:29:00,,0829.2,4.95,0.00,21.7,20.4,00.0,30.6,23.5,19.6,0000.0,0002.10,0001.36,0001.18
2022-12-26 06:30:00,,0829.3,4.97,0.00,21.7,20.4,00.0,30.6,23.5,19.6,0000.0,0002.28,0001.33,0001.16
2022-12-26 06:31:00,,0829.2,5.00,0.00,21.7,20.5,00.0,30.6,23.5,19.6,0000.0,0002.22,0001.30,0001.15
2022-12-26 06:32:00,,0829.3,5.04,0.00,21.7,20.5,00.0,30.6,23.6,19.6,0000.0,0002.19,0001.28,0001.14
2022-12-26 06:33:00,,0829.3,5.01,0.00,21.7,20.6,00.0,30.6,23.6,19.5,0000.0,0002.15,0001.27,0001.14
2022-12-26 06:34:00,,0829.3,4.98,0.00,21.7,20.6,00.0,30.6,23.6,19.5,0000.0,0002.18,0001.29,0001.14
2022-12-26 06:35:00,,0829.3,4.99,0.00,21.8,20.6,00.0,30.6,23.6,19.5,0000.0,0002.15,0001.28,0001.14
2022-12-26 06:36:00,,0829.2,5.01,0.00,21.8,20.7,00.0,30.6,23.6,19.5,0000.0,0002.17,0001.30,0001.13
2022-12-26 06:37:00,,0829.2,5.04,0.00,21.8,20.7,00.0,30.6,23.6,19.5,0000.0,0002.21,0001.31,0001.13
2022-12-26 06:38:00,,0829.1,5.01,0.00,21.8,20.7,00.0,30.6,23.6,19.5,0000.0,0002.25,0001.34,0001.14
2022-12-26 06:39:00,,0829.1,4.98,0.00,21.8,20.7,00.0,30.6,23.7,19.4,0000.0,0002.26,0001.36,0001.15
2022-12-26 06:40:00,,0829.1,4.98,0.00,21.8,20.7,00.0,30.6,23.7,19.4,0000.0,0002.11,0001.37,0001.17
2022-12-26 06:41:00,,0829.3,5.02,0.00,21.8,20.7,00.0,30.7,23.7,19.4,0000.0,0001.88,0001.36,0001.18
2022-12-26 06:42:00,,0829.2,5.02,0.00,21.8,20.8,00.0,30.7,23.7,19.4,0000.0,0001.83,0001.38,0001.19
2022-12-26 06:43:00,,0829.2,5.00,0.00,21.8,20.8,00.0,30.7,23.7,19.4,0000.0,0001.86,0001.39,0001.19
2022-12-26 06:44:00,,0829.2,4.97,0.00,21.9,20.8,00.0,30.7,23.7,19.4,0000.0,0001.97,0001.43,0001.21
2022-12-26 06:45:00,,0829.1,5.00,0.00,21.9,20.8,00.0,30.7,23.7,19.4,0000.0,0002.34,0001.46,0001.22
2022-12-26 06:46:00,,0829.2,5.02,0.00,21.9,20.8,00.0,30.7,23.7,19.4,0000.0,0002.67,0001.49,0001.22
2022-12-26 06:47:00,,0829.2,5.02,0.00,21.9,20.7,00.0,30.7,23.7,19.4,0000.0,0002.63,0001.46,0001.22
2022-12-26 06:48:00,,0829.2,4.98,0.00,21.9,20.7,00.0,30.7,23.7,19.4,0000.0,0002.54,0001.42,0001.22
2022-12-26 06:49:00,,0829.2,4.96,0.00,21.9,20.7,00.0,30.7,23.7,19.4,0000.0,0002.48,0001.39,0001.22
2022-12-26 06:50:00,,0829.2,5.02,0.00,21.9,20.7,00.0,30.7,23.7,19.4,0000.0,0002.49,0001.39,0001.21
2022-12-26 06:51:00,,0829.2,5.03,0.00,21.9,20.7,00.0,30.7,23.7,19.4,0000.0,0002.47,0001.38,0001.21
2022-12-26 06:52:00,,0829.3,4.98,0.00,21.9,20.7,00.0,30.7,23.7,19.4,0000.0,0002.57,0001.41,0001.21
2022-12-26 06:53:00,,0829.3,4.97,0.00,21.9,20.7,00.0,30.7,23.7,19.4,0000.0,0002.67,0001.43,0001.22
2022-12-26 06:54:00,,0829.4,4.97,0.00,21.9,20.7,00.0,30.7,23.7,19.4,0000.0,0002.67,0001.43,0001.22
2022-12-26 06:55:00,,0829.3,5.02,0.00,21.9,20.7,00.0,30.7,23.6,19.4,0000.0,0002.68,0001.44,0001.24
2022-12-26 06:56:00,,0829.3,5.02,0.00,21.9,20.7,00.0,30.7,23.7,19.4,0000.0,0002.84,0001.42,0001.25
2022-12-26 06:57:00,,0829.2,5.00,0.00,21.9,20.7,00.0,30.7,23.7,19.4,0000.0,0002.43,0001.43,0001.26
2022-12-26 06:58:00,,0829.2,4.99,0.00,21.9,20.7,00.0,30.7,23.7,19.4,0000.0,0002.48,0001.43,0001.26
2022-12-26 06:59:00,,0829.2,4.98,0.00,21.9,20.7,00.0,30.8,23.7,19.4,0000.0,0002.54,0001.44,0001.26
